Weather observations for the past three days for
Waukesha County Airport
Imperial (Metric)
Date Time (cdt) Wind (mph) Vis. (mi.) Weather Sky Cond. Temperature (ºF) Relative Humidity Wind Chill (°F) Heat Index (°F) Pressure Precipitation (in)
Air Dwpt 6 hour altimeter (in) sea level (mb) 1 hr 3 hr 6 hr
Max. Min.
01 14:45 W 6 10.00 Thunderstorm in Vicinity SCT110 84.2 75.2 74% 92 29.94 0.0
01 13:45 SW 10 10.00 Partly Cloudy SCT023 87.8 77 70% 100 29.94 0.0
01 12:45 W 7 7.00 Overcast with Haze BKN019 BKN027 OVC031 87.8 77 70% 100 29.95 0.0
01 11:45 W 7 5.00 Mostly Cloudy with Haze BKN019 BKN025 86 77 75% 97 29.96 0.0
01 10:45 S 5 7.00 Partly Cloudy SCT025 82.4 77 84% 91 29.97 0.0
01 09:45 Calm 7.00 Partly Cloudy SCT024 82.4 75.2 79% 89 29.97 0.0
01 08:45 Calm 7.00 Partly Cloudy SCT024 78.8 75.2 89% 82 29.96 0.0
01 07:45 Calm 7.00 Fog/Mist CLR 75.2 73.4 94% 74 29.96 0.0
01 06:45 Calm 7.00 Fog/Mist CLR 73.4 71.6 94% 29.94 0.0
01 05:45 SW 3 10.00 Fair CLR 73.4 71.6 94% 29.93 0.0
01 05:35 SW 5 9.00 Fair CLR 73.4 71.6 94% 29.93 0.0
01 05:15 Vrbl 1 9.00 Fair CLR 73.4 71.6 94% 29.92 0.0
01 04:55 Vrbl 2 9.00 Fair CLR 73.4 71.6 94% 29.92 0.0
01 04:35 Calm 10.00 Fair CLR 75.2 73.4 94% 74 29.92 0.0
01 04:15 W 5 10.00 Fair CLR 75.2 71.6 89% 75 29.93 0.0
01 03:55 SW 3 10.00 A Few Clouds FEW120 75.2 71.6 89% 75 29.92 0.0
01 03:35 W 5 10.00 Partly Cloudy SCT120 77 71.6 83% 78 29.92 0.0
01 03:15 W 5 10.00 Fair CLR 75.2 71.6 89% 75 29.92 0.0
01 02:55 SW 6 10.00 Fair CLR 75.2 71.6 89% 75 29.92 0.0
01 02:35 SW 2 10.00 Fair CLR 73.4 71.6 94% 29.92 0.0
01 02:15 Vrbl 2 9.00 Fair CLR 73.4 71.6 94% 29.92 0.0
01 01:55 Vrbl 2 10.00 Fair CLR 75.2 71.6 89% 75 29.92 0.0
01 01:35 SW 3 10.00 Fair CLR 75.2 71.6 89% 75 29.93 0.0
01 01:15 SW 5 10.00 Fair CLR 75.2 71.6 89% 75 29.92 0.0
01 00:55 SW 6 10.00 Fair CLR 75.2 71.6 81.7 74.7 89% 75 29.92 0.0
01 00:35 SW 6 10.00 Fair CLR 75.2 71.6 89% 75 29.92 0.0
01 00:15 SW 7 10.00 Fair CLR 75.2 71.6 89% 75 29.92 0.0
31 23:55 SW 7 10.00 Fair CLR 77 71.6 83% 78 29.93 0.0
31 23:35 SW 7 10.00 Fair CLR 75.2 71.6 89% 75 29.93 0.0
31 23:15 SW 5 10.00 Fair CLR 75.2 71.6 89% 75 29.93 0.0
31 22:55 SW 5 10.00 Fair CLR 75.2 71.6 89% 75 29.93 0.0
31 22:35 SW 5 10.00 Fair CLR 75.2 73.4 94% 74 29.93 0.0
31 22:15 SW 3 10.00 Fair CLR 75.2 73.4 94% 74 29.93 0.0
31 21:55 SW 2 10.00 Fair CLR 77 73.4 89% 78 29.93 0.0
31 21:35 S 5 10.00 Fair CLR 75.2 73.4 94% 74 29.93 0.0
31 21:15 W 2 10.00 Fair CLR 77 73.4 89% 78 29.94 0.0
31 20:55 W 3 10.00 Fair CLR 78.8 73.4 84% 82 29.93 0.0
31 20:45 SW 5 10.00 Fair CLR 78.8 73.4 84% 82 29.92 0.0
31 19:45 SW 3 10.00 Fair CLR 80.6 73.4 79% 85 29.91 0.0
31 17:45 SW 9 10.00 Fair CLR 84.2 73.4 70% 91 29.89 0.0
31 16:45 SW 7 10.00 Fair CLR 84.2 73.4 70% 91 29.89 0.0
31 15:45 W 7 10.00 Fair CLR 82.4 71.6 70% 87 29.88 0.0
31 14:45 SW 7 10.00 Overcast OVC100 84.2 71.6 66% 90 29.88 0.0
31 13:45 SW 12 G 23 10.00 Fair CLR 86 69.8 59% 91 29.88 0.0
31 12:45 S 12 G 23 10.00 Fair CLR 82.4 69.8 66% 86 29.89 0.0
31 11:45 S 12 G 23 10.00 Fair CLR 82.4 68 62% 85 29.91 0.0
31 10:45 S 12 G 17 10.00 A Few Clouds FEW100 80.6 68 66% 83 29.91 0.0
31 09:45 S 10 G 20 10.00 Fair CLR 77 68 74% 79 29.91 0.0
31 08:45 S 10 10.00 A Few Clouds FEW090 73.4 66.2 78% 29.91 0.0
31 07:45 S 10 10.00 Overcast OVC090 73.4 66.2 78% 29.9 0.0
31 06:45 S 9 10.00 Overcast OVC090 71.6 68 88% 29.91 0.0
31 05:45 S 7 10.00 Light Rain SCT032 BKN050 OVC090 71.6 68 88% 29.91 0.0
31 05:35 S 10 8.00 Thunderstorm in Vicinity Light Rain SCT030 SCT060 BKN090 71.6 68 88% 29.91 0.0
31 05:15 S 9 2.00 Thunderstorm in Vicinity Heavy Rain Fog/Mist FEW004 SCT055 BKN075 71.6 68 88% 29.93 0.0
31 04:55 S 3 1.25 Thunderstorm Heavy Rain Fog/Mist SCT004 BKN039 OVC075 69.8 68 94% 29.95 0.0 0.11
31 04:35 SE 6 10.00 Thunderstorm FEW043 SCT055 OVC075 71.6 68 88% 29.93 0.0
31 04:15 SE 5 10.00 Thunderstorm in Vicinity FEW070 OVC090 71.6 68 88% 29.92 0.0
31 03:55 SE 3 10.00 Overcast OVC100 71.6 68 88% 29.93 0.0
31 03:35 SE 6 10.00 Mostly Cloudy BKN110 71.6 68 88% 29.93 0.0
31 03:15 SE 6 10.00 Partly Cloudy SCT110 69.8 68 94% 29.93 0.0
31 02:55 SE 6 10.00 Fair CLR 69.8 68 94% 29.92 0.0
31 02:35 SE 5 10.00 Fair CLR 69.8 68 94% 29.93 0.0
31 02:15 SE 5 10.00 Fair CLR 69.8 68 94% 29.95 0.0
31 01:55 E 3 9.00 Fair CLR 69.8 68 94% 29.96 0.0
31 01:35 Calm 10.00 Fair CLR 69.8 68 94% 29.96 0.0
31 01:15 N 1 10.00 A Few Clouds FEW120 69.8 68 94% 29.97 0.0
31 00:55 N 1 10.00 A Few Clouds FEW120 69.8 68 73.2 69.4 94% 29.97 0.0
31 00:15 E 3 10.00 Mostly Cloudy FEW060 FEW075 BKN120 71.6 68 88% 29.96 0.0
30 23:55 E 2 10.00 Overcast SCT060 BKN075 OVC110 71.6 68 88% 29.96 0.0
30 23:35 NW 1 10.00 Light Rain SCT050 SCT075 BKN100 71.6 68 88% 29.96 0.0
30 23:15 W 5 10.00 A Few Clouds FEW075 FEW090 73.4 68 83% 29.96 0.0
30 22:55 SW 2 10.00 Fair CLR 71.6 68 88% 29.95 0.0
30 22:35 Vrbl 3 10.00 Fair CLR 73.4 68 83% 29.94 0.0
30 22:15 Vrbl 3 10.00 Fair CLR 73.4 68 83% 29.94 0.0
30 21:55 S 12 G 18 10.00 Fair CLR 73.4 68 83% 29.93 0.0
30 21:35 S 9 10.00 A Few Clouds FEW080 FEW090 FEW110 73.4 68 83% 29.95 0.0
30 21:15 SW 6 10.00 A Few Clouds FEW080 FEW100 FEW120 73.4 68 83% 29.96 0.0
30 20:45 SW 7 10.00 Fair CLR 73.4 68 83% 29.95 0.0
30 19:45 SW 9 10.00 Fair CLR 71.6 68 88% 29.95 0.0
30 18:45 S 9 10.00 Fair CLR 73.4 69.8 89% 29.93 0.0
30 17:45 S 9 G 14 10.00 Fair CLR 73.4 68 83% 29.93 0.0
30 16:45 SW 13 G 18 10.00 Fair CLR 73.4 68 83% 29.92 0.0
30 15:45 W 10 G 17 10.00 Fair CLR 75.2 68 78% 76 29.93 0.0
30 14:45 SW 15 G 23 10.00 Fair CLR 78.8 68 70% 81 29.94 0.0
30 13:45 SW 18 G 30 10.00 Fair CLR 82.4 66.2 58% 85 29.94 0.0
30 12:45 SW 14 G 24 10.00 Fair CLR 84.2 64.4 51% 86 29.9 0.0
30 11:45 SW 15 G 25 10.00 A Few Clouds FEW100 84.2 66.2 55% 87 29.91 0.0
30 10:45 SW 13 G 23 10.00 Fair CLR 80.6 66.2 62% 83 29.92 0.0
30 09:45 S 12 10.00 Fair CLR 77 68 74% 79 29.92 0.0
30 08:45 S 12 10.00 Fair CLR 71.6 68 88% 29.92 0.0
30 07:45 S 9 10.00 Partly Cloudy SCT095 68 66.2 94% 29.94 0.0
30 06:45 SW 12 10.00 Overcast OVC085 68 66.2 94% 29.94 0.0
30 05:50 S 12 7.00 Light Rain SCT021 BKN065 OVC080 68 64.4 88% 29.92 0.0
30 05:35 Vrbl 7 7.00 Thunderstorm in Vicinity Light Rain Haze SCT007 BKN040 OVC060 69.8 64.4 83% 29.92 0.0
30 05:15 Vrbl 6 2.50 Thunderstorm in Vicinity Heavy Rain Haze SCT012 BKN026 OVC080 69.8 64.4 83% 29.91 0.0
30 04:55 S 13 G 16 10.00 Thunderstorm in Vicinity FEW023 FEW044 OVC080 71.6 64.4 78% 29.91 0.0
30 04:35 SW 10 G 20 10.00 Thunderstorm in Vicinity FEW070 OVC080 69.8 64.4 83% 29.92 0.0
30 04:15 S 14 G 21 10.00 Thunderstorm OVC085 69.8 64.4 83% 29.91 0.0
30 03:55 S 9 10.00 Thunderstorm in Vicinity OVC085 69.8 64.4 83% 29.93 0.0
30 03:35 Vrbl 3 10.00 Thunderstorm in Vicinity OVC085 69.8 64.4 83% 29.93 0.0
30 03:15 Vrbl 6 10.00 Thunderstorm in Vicinity SCT028 SCT050 OVC085 68 64.4 88% 29.93 0.0
30 02:55 S 8 6.00 Thunderstorm in Vicinity Light Rain Haze BKN050 BKN075 BKN100 69.8 64.4 83% 29.93 0.0 0.03
30 02:35 S 7 10.00 Thunderstorm FEW050 SCT090 BKN110 69.8 62.6 78% 29.94 0.0
30 02:15 Vrbl 7 10.00 Mostly Cloudy SCT070 BKN090 BKN110 69.8 64.4 83% 29.94 0.0
30 01:55 S 8 10.00 Overcast SCT060 BKN070 OVC100 69.8 64.4 83% 29.96 0.0
30 01:35 Vrbl 6 10.00 Overcast FEW037 BKN065 OVC110 69.8 62.6 78% 29.97 0.0
30 01:15 S 8 10.00 Mostly Cloudy BKN110 69.8 62.6 78% 29.98 0.0
30 00:55 Vrbl 6 10.00 Partly Cloudy FEW085 SCT110 69.8 64.4 72 69.4 83% 29.98 0.0
30 00:35 S 5 10.00 Partly Cloudy SCT120 69.8 64.4 83% 29.98 0.0
30 00:15 S 7 10.00 Partly Cloudy SCT120 69.8 64.4 83% 29.98 0.0
29 23:55 S 7 10.00 Fair CLR 69.8 64.4 83% 29.99 0.0
29 23:35 S 7 10.00 Fair CLR 69.8 64.4 83% 29.98 0.0
29 23:15 S 5 10.00 Fair CLR 69.8 64.4 83% 29.99 0.0
29 22:55 Vrbl 3 10.00 A Few Clouds FEW110 69.8 64.4 83% 29.99 0.0
29 22:35 S 5 10.00 Partly Cloudy SCT100 69.8 64.4 83% 29.99 0.0
29 22:15 Vrbl 6 10.00 A Few Clouds FEW100 71.6 64.4 78% 29.99 0.0
29 21:55 S 8 10.00 Fair CLR 71.6 64.4 78% 29.98 0.0
29 21:35 Vrbl 6 10.00 Fair CLR 71.6 62.6 73% 29.98 0.0
29 21:15 S 10 10.00 Fair CLR 71.6 62.6 73% 29.98 0.0
29 20:55 S 10 10.00 Fair CLR 71.6 62.6 73% 29.97 0.0
29 20:45 S 7 10.00 Fair CLR 71.6 62.6 73% 29.97 0.0
29 19:45 S 9 10.00 Fair CLR 71.6 62.6 73% 29.97 0.0
29 18:45 S 9 10.00 Mostly Cloudy BKN100 71.6 60.8 69% 30 0.0
29 17:45 S 9 G 15 10.00 Overcast FEW029 FEW041 OVC095 71.6 66.2 83% 30.01 0.0
29 16:45 SE 7 5.00 Light Rain Fog/Mist BKN050 OVC070 71.6 68 88% 30.03 0.0
29 16:30 SE 3 5.00 Light Rain Haze SCT060 SCT070 SCT075 71.6 66.2 83% 30.04 0.0
29 15:45 S 3 10.00 Mostly Cloudy FEW050 FEW070 BKN090 73.4 66.2 78% 30.07 0.0
Date Time (cdt) Wind (mph) Vis. (mi.) Weather Sky Cond. Air Dwpt Max. Min. Relative Humidity Wind Chill (°F) Heat Index (°F) altimeter (in) sea level (mb) 1 hr 3 hr 6 hr
6 hour
Temperature (ºF) Pressure Precipitation (in)